,,Stat5,,Stat1,,Stat2,,Stat3,,Stat4,,Wind1,,Wind1,
time,status,PA1M_AVG,status,PR1M_SUM,status,RH1M_AVG,status,SR1M_AVG,status,TA1M_AVG,status,W1dAve1m,status,W1sAve1m,
2001-03-02, 00:00:00,VALID,919.564,VALID,0,VALID,93.0993,VALID,-0.118866,VALID,19.9435,VALID,231,VALID,1.19732,
2001-03-02, 00:01:00,VALID,919.558,VALID,0,VALID,93.243,VALID,-0.0849042,VALID,19.9276,VALID,235,VALID,1.11406,
2001-03-02, 00:02:00,VALID,919.547,VALID,0,VALID,93.4566,VALID,-0.0339617,VALID,19.9174,VALID,235,VALID,1.12007,
2001-03-02, 00:03:00,VALID,919.518,VALID,0,VALID,93.4273,VALID,-0.0849042,VALID,19.9015,VALID,239,VALID,0.966146,
2001-03-02, 00:04:00,VALID,919.51,VALID,0,VALID,93.5558,VALID,-0.0849042,VALID,19.8757,VALID,231,VALID,1.63734,
2001-03-02, 00:05:00,VALID,919.494,VALID,0,VALID,93.4057,VALID,-0.0509425,VALID,19.8625,VALID,227,VALID,1.10294,
2001-03-02, 00:06:00,VALID,919.495,VALID,0,VALID,93.3816,VALID,0.0169808,VALID,19.858,VALID,224,VALID,1.20334,
2001-03-02, 00:07:00,VALID,919.501,VALID,0,VALID,93.262,VALID,0.0849042,VALID,19.8712,VALID,229,VALID,0.819643,
2001-03-02, 00:08:00,VALID,919.5,VALID,0,VALID,92.925,VALID,0.0679233,VALID,19.8647,VALID,197,VALID,0.114926,
2001-03-02, 00:09:00,VALID,919.514,VALID,0,VALID,92.5982,VALID,0.0509425,VALID,19.8359,VALID,175,VALID,0.379557,
2001-03-02, 00:10:00,VALID,919.522,VALID,0,VALID,92.0057,VALID,0.0169808,VALID,19.7348,VALID,140,VALID,0.269942,
2001-03-02, 00:11:00,VALID,919.516,VALID,0,VALID,92.5766,VALID,0.0169808,VALID,19.6421,VALID,103,VALID,0.378289,
2001-03-02, 00:12:00,VALID,919.523,VALID,0,VALID,93.187,VALID,0.0169808,VALID,19.5645,VALID,100,VALID,0.201953,
2001-03-02, 00:13:00,VALID,919.513,VALID,0,VALID,93.7478,VALID,0,VALID,19.5221,VALID,93,VALID,0.333059,
2001-03-02, 00:14:00,VALID,919.526,VALID,0,VALID,94.0479,VALID,0.0169808,VALID,19.5059,VALID,93,VALID,0.32492,
2001-03-02, 00:15:00,VALID,919.516,VALID,0,VALID,94.2043,VALID,0.0339617,VALID,19.5062,VALID,93,VALID,0.0378289,
2001-03-02, 00:16:00,VALID,919.514,VALID,0,VALID,93.6804,VALID,0.0169808,VALID,19.4868,VALID,93,VALID,0,
2001-03-02, 00:17:00,VALID,919.494,VALID,0,VALID,93.1934,VALID,0,VALID,19.3961,VALID,93,VALID,0.0916941,
2001-03-02, 00:18:00,VALID,919.477,VALID,0,VALID,93.9055,VALID,0.0509425,VALID,19.377,VALID,93,VALID,0.353207,
2001-03-02, 00:19:00,VALID,919.462,VALID,0,VALID,93.7274,VALID,0.0339617,VALID,19.3094,VALID,93,VALID,0.245683,
2001-03-02, 00:20:00,VALID,919.459,VALID,0,VALID,93.6359,VALID,0.0169808,VALID,19.2351,VALID,93,VALID,0.0564453,
2001-03-02, 00:21:00,VALID,919.441,VALID,0,VALID,94.2106,VALID,0.0679233,VALID,19.1958,VALID,94,VALID,0,
2001-03-02, 00:22:00,VALID,919.442,VALID,0,VALID,94.3454,VALID,0.0169808,VALID,19.1961,VALID,94,VALID,0.0506811,
2001-03-02, 00:23:00,VALID,919.441,VALID,0,VALID,93.8037,VALID,0.0509425,VALID,19.0992,VALID,94,VALID,0.589433,
2001-03-02, 00:24:00,VALID,919.414,VALID,0,VALID,94.3124,VALID,0.0339617,VALID,19.0219,VALID,94,VALID,0.445898,
2001-03-02, 00:25:00,VALID,919.421,VALID,0,VALID,95.2788,VALID,0.0339617,VALID,19.0058,VALID,94,VALID,0.410362,
2001-03-02, 00:26:00,VALID,919.396,VALID,0,VALID,95.7302,VALID,0,VALID,18.9926,VALID,104,VALID,0.689762,
2001-03-02, 00:27:00,VALID,919.388,VALID,0,VALID,96.2414,VALID,0.0169808,VALID,18.9993,VALID,111,VALID,0.91653,
2001-03-02, 00:28:00,VALID,919.391,VALID,0,VALID,96.2439,VALID,0.0339617,VALID,18.9605,VALID,116,VALID,0.932771,
2001-03-02, 00:29:00,VALID,919.38,VALID,0,VALID,96.071,VALID,0,VALID,18.9511,VALID,113,VALID,1.10732,
2001-03-02, 00:30:00,VALID,919.38,VALID,0,VALID,95.5293,VALID,0,VALID,18.8381,VALID,122,VALID,1.27404,
2001-03-02, 00:31:00,VALID,919.396,VALID,0,VALID,96.4131,VALID,-0.0169808,VALID,18.8674,VALID,115,VALID,1.34622,
2001-03-02, 00:32:00,VALID,919.386,VALID,0,VALID,96.5924,VALID,0,VALID,18.9093,VALID,111,VALID,1.2498,
2001-03-02, 00:33:00,VALID,919.402,VALID,0,VALID,96.0239,VALID,0,VALID,18.8803,VALID,111,VALID,1.1285,
2001-03-02, 00:34:00,VALID,919.423,VALID,0,VALID,96.483,VALID,0.0339617,VALID,18.8671,VALID,122,VALID,1.04276,
2001-03-02, 00:35:00,VALID,919.43,VALID,0,VALID,96.8352,VALID,0,VALID,18.9486,VALID,134,VALID,0.987664,
2001-03-02, 00:36:00,VALID,919.441,VALID,0,VALID,96.9255,VALID,0.0169808,VALID,19.0221,VALID,134,VALID,0.926562,
2001-03-02, 00:37:00,VALID,919.452,VALID,0,VALID,96.6483,VALID,0.0169808,VALID,19.0997,VALID,129,VALID,0.858347,
2001-03-02, 00:38:00,VALID,919.445,VALID,0,VALID,96.2414,VALID,0.0169808,VALID,19.1414,VALID,139,VALID,0.602965,
2001-03-02, 00:39:00,VALID,919.423,VALID,0,VALID,95.9591,VALID,0,VALID,19.1414,VALID,159,VALID,0.233553,
2001-03-02, 00:40:00,VALID,919.406,VALID,0,VALID,96.1422,VALID,0.0169808,VALID,19.1682,VALID,184,VALID,0.713477,
2001-03-02, 00:41:00,VALID,919.378,VALID,0,VALID,96.071,VALID,0,VALID,19.2062,VALID,180,VALID,0.519531,
2001-03-02, 00:42:00,VALID,919.36,VALID,0,VALID,95.5382,VALID,0,VALID,19.2097,VALID,194,VALID,0.412623,
2001-03-02, 00:43:00,VALID,919.338,VALID,0,VALID,95.3716,VALID,0.0169808,VALID,19.2005,VALID,182,VALID,0.917969,
2001-03-02, 00:44:00,VALID,919.323,VALID,0,VALID,95.3767,VALID,0,VALID,19.1968,VALID,192,VALID,0.916406,
2001-03-02, 00:45:00,VALID,919.309,VALID,0,VALID,94.8795,VALID,0,VALID,19.1938,VALID,163,VALID,0.573396,
2001-03-02, 00:46:00,VALID,919.3,VALID,0,VALID,94.9444,VALID,0.0169808,VALID,19.1675,VALID,166,VALID,0.528646,
2001-03-02, 00:47:00,VALID,919.291,VALID,0,VALID,95.1122,VALID,0.0169808,VALID,19.164,VALID,180,VALID,0.524054,
2001-03-02, 00:48:00,VALID,919.306,VALID,0,VALID,94.1916,VALID,0,VALID,19.1456,VALID,166,VALID,0.19082,
2001-03-02, 00:49:00,VALID,919.295,VALID,0,VALID,94.1102,VALID,0.0169808,VALID,19.0676,VALID,146,VALID,0.267475,
2001-03-02, 00:50:00,VALID,919.292,VALID,0,VALID,94.306,VALID,-0.0339617,VALID,18.9871,VALID,124,VALID,0.478618,
2001-03-02, 00:51:00,VALID,919.282,VALID,0,VALID,95.0601,VALID,-0.101885,VALID,18.9558,VALID,145,VALID,0.648232,
2001-03-02, 00:52:00,VALID,919.291,VALID,0,VALID,95.8408,VALID,-0.101885,VALID,18.9751,VALID,180,VALID,0.374805,
2001-03-02, 00:53:00,VALID,919.283,VALID,0,VALID,95.6806,VALID,-0.101885,VALID,19.0241,VALID,186,VALID,0.198602,
2001-03-02, 00:54:00,VALID,919.275,VALID,0,VALID,95.0715,VALID,-0.0849042,VALID,19.0338,VALID,150,VALID,0.276643,
2001-03-02, 00:55:00,VALID,919.278,VALID,0,VALID,95.1338,VALID,-0.101885,VALID,19.0273,VALID,145,VALID,0.0941612,
2001-03-02, 00:56:00,VALID,919.244,VALID,0,VALID,95.1821,VALID,-0.101885,VALID,19.0628,VALID,145,VALID,0,
2001-03-02, 00:57:00,VALID,919.23,VALID,0,VALID,95.1847,VALID,-0.101885,VALID,19.0683,VALID,145,VALID,0,
2001-03-02, 00:58:00,VALID,919.212,VALID,0,VALID,94.9711,VALID,-0.0849042,VALID,19.0854,VALID,145,VALID,0,
2001-03-02, 00:59:00,VALID,919.185,VALID,0,VALID,94.5654,VALID,-0.0849042,VALID,19.0718,VALID,142,VALID,0.108141,
2001-03-02, 01:00:00,VALID,919.167,VALID,0,VALID,93.2836,VALID,-0.118866,VALID,18.9758,VALID,114,VALID,0.744531,
2001-03-02, 01:01:00,VALID,919.152,VALID,0,VALID,94.1687,VALID,-0.101885,VALID,18.8623,VALID,115,VALID,0.737459,
2001-03-02, 01:02:00,VALID,919.105,VALID,0,VALID,95.8167,VALID,-0.101885,VALID,18.8914,VALID,139,VALID,0.565905,
2001-03-02, 01:03:00,VALID,919.061,VALID,0,VALID,96.1727,VALID,-0.0679233,VALID,18.9493,VALID,179,VALID,0.670025,
2001-03-02, 01:04:00,VALID,919.01,VALID,0,VALID,96.015,VALID,0,VALID,19,VALID,206,VALID,1.01738,
2001-03-02, 01:05:00,VALID,918.991,VALID,0,VALID,95.9705,VALID,-0.0339617,VALID,19.0589,VALID,210,VALID,1.14145,
2001-03-02, 01:06:00,VALID,918.983,VALID,0,VALID,95.6107,VALID,-0.101885,VALID,19.1177,VALID,204,VALID,0.94963,
2001-03-02, 01:07:00,VALID,918.993,VALID,0,VALID,95.3729,VALID,-0.101885,VALID,19.1401,VALID,201,VALID,0.985814,
2001-03-02, 01:08:00,VALID,918.999,VALID,0,VALID,95.2203,VALID,-0.101885,VALID,19.1466,VALID,200,VALID,0.805078,
2001-03-02, 01:09:00,VALID,919.005,VALID,0,VALID,95.3169,VALID,-0.101885,VALID,19.1697,VALID,196,VALID,0.960115,
2001-03-02, 01:10:00,VALID,919.012,VALID,0,VALID,95.0397,VALID,-0.0849042,VALID,19.1766,VALID,184,VALID,0.936098,
2001-03-02, 01:11:00,VALID,919.018,VALID,0,VALID,95.2165,VALID,-0.101885,VALID,19.1567,VALID,177,VALID,0.830798,
2001-03-02, 01:12:00,VALID,919.039,VALID,0,VALID,94.6137,VALID,-0.0849042,VALID,19.0887,VALID,149,VALID,0.804297,
2001-03-02, 01:13:00,VALID,919.048,VALID,0,VALID,94.5082,VALID,-0.101885,VALID,18.9947,VALID,151,VALID,0.866571,
2001-03-02, 01:14:00,VALID,919.045,VALID,0,VALID,95.2343,VALID,-0.101885,VALID,18.953,VALID,158,VALID,0.702714,
2001-03-02, 01:15:00,VALID,919.034,VALID,0,VALID,96.0964,VALID,-0.101885,VALID,18.9401,VALID,178,VALID,0.703742,
2001-03-02, 01:16:00,VALID,919.014,VALID,0,VALID,96.3813,VALID,-0.101885,VALID,18.9406,VALID,189,VALID,0.501562,
2001-03-02, 01:17:00,VALID,919.013,VALID,0,VALID,95.8485,VALID,-0.101885,VALID,18.8822,VALID,198,VALID,0.0707237,
2001-03-02, 01:18:00,VALID,919.011,VALID,0,VALID,94.5934,VALID,-0.101885,VALID,18.7334,VALID,198,VALID,0.0606971,
2001-03-02, 01:19:00,VALID,919.013,VALID,0,VALID,95.2979,VALID,-0.0849042,VALID,18.6655,VALID,198,VALID,0.185444,
2001-03-02, 01:20:00,VALID,919.012,VALID,0,VALID,95.8129,VALID,-0.0679233,VALID,18.6358,VALID,198,VALID,0.120117,
2001-03-02, 01:21:00,VALID,919.008,VALID,0,VALID,96.3151,VALID,0,VALID,18.6482,VALID,198,VALID,0.0853207,
2001-03-02, 01:22:00,VALID,918.989,VALID,0,VALID,95.8459,VALID,0,VALID,18.5968,VALID,198,VALID,0.0152138,
2001-03-02, 01:23:00,VALID,918.956,VALID,0,VALID,95.2394,VALID,0,VALID,18.5126,VALID,192,VALID,0.0600329,
2001-03-02, 01:24:00,VALID,918.94,VALID,0,VALID,94.7104,VALID,0,VALID,18.3769,VALID,152,VALID,0.54668,
2001-03-02, 01:25:00,VALID,918.931,VALID,0,VALID,96.0901,VALID,-0.0169808,VALID,18.3414,VALID,151,VALID,1.01439,
2001-03-02, 01:26:00,VALID,918.899,VALID,0,VALID,97.2027,VALID,0,VALID,18.4192,VALID,167,VALID,1.17007,
2001-03-02, 01:27:00,VALID,918.885,VALID,0,VALID,97.6986,VALID,-0.0169808,VALID,18.5128,VALID,177,VALID,1.02076,
2001-03-02, 01:28:00,VALID,918.859,VALID,0,VALID,97.499,VALID,-0.0169808,VALID,18.5933,VALID,193,VALID,0.830664,
2001-03-02, 01:29:00,VALID,918.842,VALID,0,VALID,97.0412,VALID,-0.0169808,VALID,18.648,VALID,199,VALID,0.890008,
2001-03-02, 01:30:00,VALID,918.832,VALID,0,VALID,96.6305,VALID,0.0169808,VALID,18.7098,VALID,198,VALID,0.726563,
2001-03-02, 01:31:00,VALID,918.823,VALID,0,VALID,96.0939,VALID,0,VALID,18.7841,VALID,202,VALID,0.832031,
2001-03-02, 01:32:00,VALID,918.806,VALID,0,VALID,95.3576,VALID,-0.0169808,VALID,18.8522,VALID,208,VALID,0.978711,
2001-03-02, 01:33:00,VALID,918.791,VALID,0,VALID,94.8375,VALID,0,VALID,18.9163,VALID,224,VALID,1.0697,
2001-03-02, 01:34:00,VALID,918.785,VALID,0,VALID,94.5756,VALID,0,VALID,18.9714,VALID,226,VALID,0.878005,
2001-03-02, 01:35:00,VALID,918.786,VALID,0,VALID,94.0644,VALID,0,VALID,19.0236,VALID,199,VALID,0.635485,
2001-03-02, 01:36:00,VALID,918.802,VALID,0,VALID,92.8284,VALID,-0.0509425,VALID,19.0019,VALID,147,VALID,0.666992,
2001-03-02, 01:37:00,VALID,918.818,VALID,0,VALID,93.3637,VALID,-0.0679233,VALID,18.9309,VALID,136,VALID,0.801809,
2001-03-02, 01:38:00,VALID,918.815,VALID,0,VALID,94.0339,VALID,-0.0509425,VALID,18.9145,VALID,158,VALID,0.886924,
2001-03-02, 01:39:00,VALID,918.819,VALID,0,VALID,93.9042,VALID,-0.0679233,VALID,18.9823,VALID,172,VALID,0.795847,
2001-03-02, 01:40:00,VALID,918.798,VALID,0,VALID,93.2391,VALID,-0.0849042,VALID,19.0954,VALID,176,VALID,0.754102,
2001-03-02, 01:41:00,VALID,918.791,VALID,0,VALID,92.8131,VALID,-0.0509425,VALID,19.2089,VALID,173,VALID,1.03824,
2001-03-02, 01:42:00,VALID,918.774,VALID,0,VALID,92.3935,VALID,-0.0679233,VALID,19.2273,VALID,175,VALID,0.956931,
2001-03-02, 01:43:00,VALID,918.777,VALID,0,VALID,91.4678,VALID,-0.0509425,VALID,19.2047,VALID,141,VALID,0.837377,
2001-03-02, 01:44:00,VALID,918.767,VALID,0,VALID,92.1061,VALID,-0.0169808,VALID,19.0817,VALID,135,VALID,0.831641,
2001-03-02, 01:45:00,VALID,918.783,VALID,0,VALID,93.0357,VALID,0,VALID,18.998,VALID,140,VALID,0.703947,
2001-03-02, 01:46:00,VALID,918.793,VALID,0,VALID,93.8152,VALID,-0.0509425,VALID,18.9654,VALID,155,VALID,0.687911,
2001-03-02, 01:47:00,VALID,918.795,VALID,0,VALID,93.7414,VALID,-0.0849042,VALID,18.9985,VALID,158,VALID,0.60773,
2001-03-02, 01:48:00,VALID,918.8,VALID,0,VALID,93.4439,VALID,-0.0339617,VALID,19.0661,VALID,158,VALID,0.436523,
2001-03-02, 01:49:00,VALID,918.81,VALID,0,VALID,93.2137,VALID,-0.0509425,VALID,19.0979,VALID,158,VALID,0.171464,
2001-03-02, 01:50:00,VALID,918.809,VALID,0,VALID,92.9988,VALID,-0.0509425,VALID,19.1274,VALID,158,VALID,0.00360577,
2001-03-02, 01:51:00,VALID,918.806,VALID,0,VALID,93.1082,VALID,-0.0339617,VALID,19.1408,VALID,157,VALID,0.0631168,
2001-03-02, 01:52:00,VALID,918.794,VALID,0,VALID,93.3281,VALID,-0.0679233,VALID,19.1888,VALID,30,VALID,0.499805,
2001-03-02, 01:53:00,VALID,918.766,VALID,0,VALID,93.2824,VALID,-0.0169808,VALID,19.2209,VALID,22,VALID,0.103002,
2001-03-02, 01:54:00,VALID,918.742,VALID,0,VALID,93.1094,VALID,-0.0169808,VALID,19.2273,VALID,22,VALID,0,
2001-03-02, 01:55:00,VALID,918.725,VALID,0,VALID,93.056,VALID,0,VALID,19.2146,VALID,22,VALID,0,
2001-03-02, 01:56:00,VALID,918.713,VALID,0,VALID,93.3523,VALID,-0.0339617,VALID,19.195,VALID,32,VALID,0,
2001-03-02, 01:57:00,VALID,918.701,VALID,0,VALID,93.2976,VALID,-0.0509425,VALID,19.1945,VALID,174,VALID,0,
2001-03-02, 01:58:00,VALID,918.691,VALID,0,VALID,93.1857,VALID,-0.0509425,VALID,19.2084,VALID,176,VALID,0,
2001-03-02, 01:59:00,VALID,918.684,VALID,0,VALID,93.0662,VALID,-0.0509425,VALID,19.2211,VALID,177,VALID,0,
2001-03-02, 02:00:00,VALID,918.672,VALID,0,VALID,93.1374,VALID,-0.0339617,VALID,19.2209,VALID,198,VALID,0.442578,
2001-03-02, 02:01:00,VALID,918.649,VALID,0,VALID,93.2099,VALID,-0.0509425,VALID,19.2377,VALID,198,VALID,0.796258,
2001-03-02, 02:02:00,VALID,918.607,VALID,0,VALID,93.3154,VALID,-0.0509425,VALID,19.2144,VALID,183,VALID,0.835526,
2001-03-02, 02:03:00,VALID,918.585,VALID,0,VALID,93.3192,VALID,-0.0339617,VALID,19.2338,VALID,171,VALID,1.05736,
2001-03-02, 02:04:00,VALID,918.552,VALID,0,VALID,93.0624,VALID,-0.0679233,VALID,19.2852,VALID,171,VALID,1.1957,
2001-03-02, 02:05:00,VALID,918.518,VALID,0,VALID,92.8805,VALID,-0.0679233,VALID,19.3044,VALID,162,VALID,1.13302,
2001-03-02, 02:06:00,VALID,918.479,VALID,0,VALID,92.8233,VALID,-0.0679233,VALID,19.3374,VALID,157,VALID,1.13341,
2001-03-02, 02:07:00,VALID,918.448,VALID,0,VALID,92.8399,VALID,-0.0509425,VALID,19.3535,VALID,153,VALID,0.945107,
2001-03-02, 02:08:00,VALID,918.418,VALID,0,VALID,92.9797,VALID,-0.0679233,VALID,19.3431,VALID,152,VALID,1.2916,
2001-03-02, 02:09:00,VALID,918.385,VALID,0,VALID,92.9403,VALID,-0.0339617,VALID,19.3466,VALID,157,VALID,1.43832,
2001-03-02, 02:10:00,VALID,918.36,VALID,0,VALID,92.906,VALID,-0.0339617,VALID,19.3436,VALID,164,VALID,0.98787,
2001-03-02, 02:11:00,VALID,918.344,VALID,0,VALID,93.084,VALID,-0.0169808,VALID,19.3148,VALID,177,VALID,1.10526,
2001-03-02, 02:12:00,VALID,918.319,VALID,0,VALID,93.1666,VALID,0,VALID,19.2688,VALID,169,VALID,0.803906,
2001-03-02, 02:13:00,VALID,918.291,VALID,0,VALID,93.3396,VALID,-0.0679233,VALID,19.2335,VALID,183,VALID,0.489104,
2001-03-02, 02:14:00,VALID,918.273,VALID,0,VALID,93.5494,VALID,-0.0679233,VALID,19.1886,VALID,220,VALID,0.597356,
2001-03-02, 02:15:00,VALID,918.252,VALID,0,VALID,94.0148,VALID,-0.0509425,VALID,19.1625,VALID,217,VALID,0.739515,
2001-03-02, 02:16:00,VALID,918.237,VALID,0,VALID,94.6875,VALID,-0.0169808,VALID,19.1468,VALID,228,VALID,1.36367,
2001-03-02, 02:17:00,VALID,918.223,VALID,0,VALID,95.2623,VALID,-0.0849042,VALID,19.1016,VALID,228,VALID,1.36719,
2001-03-02, 02:18:00,VALID,918.21,VALID,0,VALID,95.7938,VALID,-0.0679233,VALID,19.0529,VALID,226,VALID,1.52467,
2001-03-02, 02:19:00,VALID,918.201,VALID,0,VALID,96.1435,VALID,-0.0339617,VALID,19.0012,VALID,231,VALID,0.917558,
2001-03-02, 02:20:00,VALID,918.193,VALID,0,VALID,96.2745,VALID,0,VALID,18.9652,VALID,191,VALID,1.00645,
2001-03-02, 02:21:00,VALID,918.198,VALID,0,VALID,96.3736,VALID,-0.0339617,VALID,18.9947,VALID,199,VALID,1.43791,
2001-03-02, 02:22:00,VALID,918.187,VALID,0,VALID,95.996,VALID,-0.0509425,VALID,19.0586,VALID,199,VALID,1.28746,
2001-03-02, 02:23:00,VALID,917.778,VALID,0,VALID,95.687,VALID,-0.0509425,VALID,19.1597,VALID,196,VALID,0.479441,
2001-03-02, 02:24:00,VALID,918.203,VALID,0,VALID,95.35,VALID,-0.0169808,VALID,19.2335,VALID,194,VALID,0.782617,
2001-03-02, 02:25:00,VALID,918.225,VALID,0,VALID,95.1262,VALID,-0.0509425,VALID,19.2952,VALID,212,VALID,0.856497,
2001-03-02, 02:26:00,VALID,918.216,VALID,0,VALID,94.9418,VALID,-0.0849042,VALID,19.3824,VALID,218,VALID,1.28187,
2001-03-02, 02:27:00,VALID,918.213,VALID,0,VALID,94.6226,VALID,-0.0169808,VALID,19.4758,VALID,222,VALID,0.772615,
2001-03-02, 02:28:00,VALID,918.224,VALID,0,VALID,94.2653,VALID,-0.0169808,VALID,19.5725,VALID,229,VALID,1.25078,
2001-03-02, 02:29:00,VALID,918.215,VALID,0,VALID,93.7287,VALID,-0.0509425,VALID,19.66,VALID,218,VALID,1.06641,
2001-03-02, 02:30:00,VALID,918.211,VALID,0,VALID,93.3078,VALID,-0.0509425,VALID,19.7114,VALID,185,VALID,0.836939,
2001-03-02, 02:31:00,VALID,918.192,VALID,0,VALID,92.8068,VALID,0,VALID,19.744,VALID,162,VALID,0.216694,
2001-03-02, 02:32:00,VALID,918.182,VALID,0,VALID,92.5296,VALID,0,VALID,19.7338,VALID,135,VALID,0,
2001-03-02, 02:33:00,VALID,918.161,VALID,0,VALID,92.7,VALID,-0.0509425,VALID,19.7276,VALID,159,VALID,0,
2001-03-02, 02:34:00,VALID,918.145,VALID,0,VALID,92.8042,VALID,-0.0679233,VALID,19.7146,VALID,188,VALID,0,
2001-03-02, 02:35:00,VALID,918.159,VALID,0,VALID,92.8831,VALID,-0.0509425,VALID,19.6985,VALID,205,VALID,0,
2001-03-02, 02:36:00,VALID,918.162,VALID,0,VALID,93.0459,VALID,-0.0339617,VALID,19.6759,VALID,213,VALID,0,
2001-03-02, 02:37:00,VALID,918.164,VALID,0,VALID,93.1781,VALID,0,VALID,19.6562,VALID,236,VALID,0,
2001-03-02, 02:38:00,VALID,918.175,VALID,0,VALID,93.3218,VALID,0,VALID,19.6373,VALID,236,VALID,0,
2001-03-02, 02:39:00,VALID,918.184,VALID,0,VALID,93.4502,VALID,0,VALID,19.6013,VALID,236,VALID,0,
2001-03-02, 02:40:00,VALID,918.169,VALID,0,VALID,93.4642,VALID,-0.0509425,VALID,19.5824,VALID,230,VALID,0,
2001-03-02, 02:41:00,VALID,918.169,VALID,0,VALID,93.6155,VALID,-0.0339617,VALID,19.5461,VALID,230,VALID,0,
2001-03-02, 02:42:00,VALID,918.175,VALID,0,VALID,93.7668,VALID,-0.0339617,VALID,19.5372,VALID,230,VALID,0,
2001-03-02, 02:43:00,VALID,918.165,VALID,0,VALID,94.1878,VALID,-0.0339617,VALID,19.5146,VALID,202,VALID,0.0489309,
2001-03-02, 02:44:00,VALID,918.154,VALID,0,VALID,94.5947,VALID,-0.0169808,VALID,19.5305,VALID,184,VALID,0.776367,
2001-03-02, 02:45:00,VALID,918.137,VALID,0,VALID,94.2043,VALID,0,VALID,19.5464,VALID,173,VALID,0.568257,
2001-03-02, 02:46:00,VALID,918.122,VALID,0,VALID,94.245,VALID,-0.0169808,VALID,19.5561,VALID,182,VALID,0.734375,
2001-03-02, 02:47:00,VALID,918.107,VALID,0,VALID,94.1267,VALID,0,VALID,19.5817,VALID,184,VALID,1.04215,
2001-03-02, 02:48:00,VALID,918.099,VALID,0,VALID,93.7821,VALID,0,VALID,19.6339,VALID,200,VALID,1.14727,
2001-03-02, 02:49:00,VALID,918.085,VALID,0,VALID,93.482,VALID,-0.0169808,VALID,19.6987,VALID,202,VALID,0.555304,
2001-03-02, 02:50:00,VALID,918.101,VALID,0,VALID,93.2684,VALID,0,VALID,19.7271,VALID,190,VALID,0.938117,
2001-03-02, 02:51:00,VALID,918.099,VALID,0,VALID,93.07,VALID,0.0849042,VALID,19.7517,VALID,188,VALID,0.296258,
2001-03-02, 02:52:00,VALID,918.087,VALID,0,VALID,93.0166,VALID,0.0509425,VALID,19.7648,VALID,204,VALID,0.652344,
2001-03-02, 02:53:00,VALID,918.085,VALID,0,VALID,92.7305,VALID,0.0849042,VALID,19.7778,VALID,195,VALID,0.603125,
2001-03-02, 02:54:00,VALID,918.079,VALID,0,VALID,92.6288,VALID,0.101885,VALID,19.7775,VALID,224,VALID,0.530649,
2001-03-02, 02:55:00,VALID,918.05,VALID,0,VALID,92.438,VALID,0.101885,VALID,19.7805,VALID,232,VALID,0.709704,
2001-03-02, 02:56:00,VALID,918.037,VALID,0,VALID,92.2625,VALID,0.101885,VALID,19.7837,VALID,194,VALID,0.794531,
2001-03-02, 02:57:00,VALID,918.022,VALID,0,VALID,91.9701,VALID,0.0849042,VALID,19.7872,VALID,187,VALID,1.07813,
2001-03-02, 02:58:00,VALID,918.011,VALID,0,VALID,91.8607,VALID,0.0679233,VALID,19.7971,VALID,171,VALID,0.508224,
2001-03-02, 02:59:00,VALID,917.999,VALID,0,VALID,91.8722,VALID,0.0339617,VALID,19.7775,VALID,153,VALID,0.474095,
2001-03-02, 03:00:00,VALID,918,VALID,0,VALID,92.2117,VALID,0.0849042,VALID,19.7519,VALID,183,VALID,0.758789,
2001-03-02, 03:01:00,VALID,917.999,VALID,0,VALID,92.3668,VALID,0.0679233,VALID,19.7064,VALID,172,VALID,1.06127,
2001-03-02, 03:02:00,VALID,918.001,VALID,0,VALID,92.405,VALID,0.0849042,VALID,19.6838,VALID,160,VALID,1.02304,
2001-03-02, 03:03:00,VALID,918.005,VALID,0,VALID,92.3261,VALID,0.0339617,VALID,19.6582,VALID,169,VALID,0.852385,
2001-03-02, 03:04:00,VALID,918.013,VALID,0,VALID,92.2892,VALID,0.0849042,VALID,19.6316,VALID,173,VALID,0.781445,
2001-03-02, 03:05:00,VALID,918.009,VALID,0,VALID,92.246,VALID,0.0509425,VALID,19.62,VALID,148,VALID,0.856702,
2001-03-02, 03:06:00,VALID,918.015,VALID,0,VALID,92.4444,VALID,-0.0169808,VALID,19.5889,VALID,156,VALID,0.510691,
2001-03-02, 03:07:00,VALID,918.031,VALID,0,VALID,92.555,VALID,0,VALID,19.5461,VALID,168,VALID,0.730469,
2001-03-02, 03:08:00,VALID,918.022,VALID,0,VALID,92.728,VALID,-0.0339617,VALID,19.5173,VALID,194,VALID,0.77207,
2001-03-02, 03:09:00,VALID,918.05,VALID,0,VALID,92.7941,VALID,-0.0509425,VALID,19.4974,VALID,172,VALID,0.663651,
2001-03-02, 03:10:00,VALID,918.062,VALID,0,VALID,92.8068,VALID,-0.0169808,VALID,19.488,VALID,175,VALID,0.2498,
2001-03-02, 03:11:00,VALID,918.085,VALID,0,VALID,92.8691,VALID,-0.0509425,VALID,19.4788,VALID,149,VALID,0.230263,
2001-03-02, 03:12:00,VALID,918.088,VALID,0,VALID,93.1323,VALID,0,VALID,19.4562,VALID,173,VALID,0.191797,
2001-03-02, 03:13:00,VALID,918.097,VALID,0,VALID,93.2544,VALID,0,VALID,19.4395,VALID,198,VALID,0.056949,
2001-03-02, 03:14:00,VALID,918.091,VALID,0,VALID,93.3816,VALID,-0.0339617,VALID,19.4324,VALID,233,VALID,0.812706,
2001-03-02, 03:15:00,VALID,918.077,VALID,0,VALID,93.3154,VALID,-0.0169808,VALID,19.4619,VALID,231,VALID,0.493215,
2001-03-02, 03:16:00,VALID,918.055,VALID,0,VALID,93.0522,VALID,0,VALID,19.4818,VALID,201,VALID,0.258398,
2001-03-02, 03:17:00,VALID,918.039,VALID,0,VALID,92.9874,VALID,-0.0339617,VALID,19.4656,VALID,200,VALID,0.336554,
2001-03-02, 03:18:00,VALID,918.029,VALID,0,VALID,92.9785,VALID,-0.0169808,VALID,19.4555,VALID,198,VALID,0.0578926,
2001-03-02, 03:19:00,VALID,918.042,VALID,0,VALID,92.8577,VALID,0,VALID,19.446,VALID,181,VALID,0.127878,
2001-03-02, 03:20:00,VALID,918.046,VALID,0,VALID,93.2544,VALID,-0.0339617,VALID,19.4502,VALID,188,VALID,0.655078,
2001-03-02, 03:21:00,VALID,918.047,VALID,0,VALID,93.3637,VALID,-0.101885,VALID,19.4442,VALID,221,VALID,0.577097,
2001-03-02, 03:22:00,VALID,918.061,VALID,0,VALID,93.4032,VALID,-0.101885,VALID,19.4408,VALID,215,VALID,0.84889,
2001-03-02, 03:23:00,VALID,918.066,VALID,0,VALID,93.3892,VALID,-0.135847,VALID,19.4671,VALID,229,VALID,0.537212,
2001-03-02, 03:24:00,VALID,918.068,VALID,0,VALID,93.3587,VALID,-0.118866,VALID,19.5029,VALID,217,VALID,0.645312,
2001-03-02, 03:25:00,VALID,918.098,VALID,0,VALID,93.173,VALID,-0.101885,VALID,19.525,VALID,212,VALID,0.83491,
2001-03-02, 03:26:00,VALID,918.099,VALID,0,VALID,93.0369,VALID,-0.118866,VALID,19.5839,VALID,198,VALID,0.498197,
2001-03-02, 03:27:00,VALID,918.079,VALID,0,VALID,92.9683,VALID,-0.152827,VALID,19.5926,VALID,200,VALID,0.335526,
2001-03-02, 03:28:00,VALID,918.069,VALID,0,VALID,92.9454,VALID,-0.152827,VALID,19.6294,VALID,196,VALID,0.771484,
2001-03-02, 03:29:00,VALID,918.062,VALID,0,VALID,92.7267,VALID,-0.135847,VALID,19.648,VALID,227,VALID,0.893503,
2001-03-02, 03:30:00,VALID,918.057,VALID,0,VALID,92.4011,VALID,-0.118866,VALID,19.6803,VALID,197,VALID,0.66139,
2001-03-02, 03:31:00,VALID,918.06,VALID,0,VALID,92.2028,VALID,-0.118866,VALID,19.7194,VALID,176,VALID,0.663857,
2001-03-02, 03:32:00,VALID,918.063,VALID,0,VALID,91.9421,VALID,-0.152827,VALID,19.7648,VALID,151,VALID,0.890039,